📊 Raw Sensor Data
Showing records 46651 to 46675 of 85,073 total
| ID | Distance (ft) | Battery V | Battery A | Int Temp (°F) | Int Humid (%) | Ext Temp (°F) | Solar V | RSSI | SNR | Time Stamp |
|---|---|---|---|---|---|---|---|---|---|---|
| 38435 | -- | 3.95 | 6 | 69 | 38 | 69 | 5.10 | -86 | 8 | 04/21/2025 10:30 AM |
| 38434 | -- | 3.95 | 0 | 66 | 38 | 66 | 5.10 | -88 | 7 | 04/21/2025 10:15 AM |
| 38433 | -- | 3.95 | 0 | 65 | 38 | 65 | 5.10 | -84 | 8 | 04/21/2025 10:00 AM |
| 38432 | -- | 4.11 | 6 | 62 | 39 | 61 | 5.10 | -82 | 7 | 04/21/2025 09:45 AM |
| 38431 | -- | 3.97 | 6 | 60 | 39 | 60 | 5.10 | -84 | 9 | 04/21/2025 09:30 AM |
| 38430 | -- | 3.95 | 0 | 59 | 39 | 59 | 5.10 | -81 | 8 | 04/21/2025 09:16 AM |
| 38429 | -- | 3.95 | 0 | 57 | 39 | 58 | 5.10 | -81 | 8 | 04/21/2025 09:00 AM |
| 38428 | -- | 3.95 | 6 | 54 | 39 | 55 | 5.10 | -83 | 8 | 04/21/2025 08:30 AM |
| 38427 | -- | 3.95 | 0 | 53 | 39 | 54 | 5.10 | -83 | 8 | 04/21/2025 08:16 AM |
| 38426 | -- | 3.95 | 0 | 52 | 39 | 54 | 5.10 | -83 | 8 | 04/21/2025 08:00 AM |
| 38425 | -- | 4.13 | 60 | 51 | 39 | 56 | 4.50 | -86 | 7 | 04/21/2025 07:45 AM |
| 38424 | -- | 4.08 | 37 | 49 | 39 | 60 | 4.50 | -83 | 7 | 04/21/2025 07:30 AM |
| 38423 | -- | 3.95 | 28 | 46 | 40 | 57 | 4.50 | -82 | 7 | 04/21/2025 07:15 AM |
| 38422 | -- | 3.96 | 8 | 44 | 40 | 51 | 4.50 | -85 | 8 | 04/21/2025 07:00 AM |
| 38421 | -- | 3.88 | 0 | 42 | 41 | 47 | 4.50 | -83 | 8 | 04/21/2025 06:45 AM |
| 38420 | -- | 3.86 | -8 | 41 | 41 | 43 | 4.50 | -83 | 8 | 04/21/2025 06:30 AM |
| 38419 | -- | 3.92 | -8 | 42 | 41 | 43 | 2.90 | -82 | 8 | 04/21/2025 06:15 AM |
| 38418 | -- | 3.87 | -5 | 42 | 41 | 44 | 0.10 | -82 | 7 | 04/21/2025 06:00 AM |
| 38417 | -- | 3.88 | -5 | 42 | 41 | 45 | 0.00 | -82 | 7 | 04/21/2025 05:45 AM |
| 38416 | -- | 3.93 | -5 | 41 | 41 | 45 | 0.00 | -83 | 8 | 04/21/2025 05:30 AM |
| 38415 | -- | 3.88 | -5 | 42 | 41 | 45 | 0.00 | -82 | 8 | 04/21/2025 05:15 AM |
| 38414 | -- | 3.93 | -5 | 42 | 41 | 44 | 0.00 | -83 | 8 | 04/21/2025 05:00 AM |
| 38413 | -- | 3.88 | -5 | 42 | 41 | 44 | 0.00 | -83 | 8 | 04/21/2025 04:46 AM |
| 38412 | 15.0 | 3.88 | -5 | 43 | 41 | 44 | 0.10 | -83 | 8 | 04/21/2025 04:30 AM |
| 38411 | -- | 3.94 | -5 | 44 | 41 | 44 | 0.00 | -85 | 7 | 04/21/2025 04:15 AM |